Regional Weather Roundup
Issued by NWS Cleveland, OH

Home | Current Version | Previous Version | Graphics & Text | Print | Product List | Glossary On
Versions: 1 2 3 4 5 6 7 8 9 10 11 12 13 14 15 16 17 18 19 20 21 22 23 24 25 26 27 28 29 30 31 32 33 34 35 36 37 38 39 40 41 42 43 44 45 46 47 48 49 50
000
ASUS41 KCLE 250010
RWRCLE
OHIO REGIONAL WEATHER ROUNDUP
NATIONAL WEATHER SERVICE WILMINGTON, OH
800 PM EDT FRI MAR 24 2017

NOTE: "FAIR" INDICATES FEW OR NO CLOUDS BELOW 12,000 FEET WITH NO
SIGNIFICANT WEATHER AND/OR OBSTRUCTIONS TO VISIBILITY.

OHZ001>008-015>018-024>027-034-035-043-044-250100-
   NORTHWEST OHIO

CITY           SKY/WX    TMP DP  RH WIND       PRES   REMARKS
DEFIANCE       FAIR      69  53  56 SW10      30.02R
FINDLAY        FAIR      70  53  54 SW16      30.02R
TOLEDO EXPRESS FAIR      71  54  54 SW15      30.00R
TOLEDO EXEC    FAIR      69  55  60 SW9       30.01R
LIMA           FAIR      69  53  56 SW15G23   30.05R
$$

OHZ009>014-019>023-028>033-038-089-250100-
   NORTHEAST OHIO

CITY           SKY/WX    TMP DP  RH WIND       PRES   REMARKS
CLE-HOPKINS    MOCLDY    71  52  50 SW10      30.05R
CLE-LAKEFRONT  FAIR      71  53  52 SW15      30.00R
CUY CO. ARPT   MOCLDY    72  55  56 W21G32    30.03R
LORAIN-ELYRIA  CLOUDY    67  52  58 SW10      30.03R
ASHTABULA      FAIR      66  49  54 SW8       30.02R
AKRON-CANTON   FAIR      67  51  56 SW16G22   30.07R
WOOSTER        FAIR      66  52  60 SW20G25   30.07R
MANSFIELD      FAIR      67  52  58 SW20G28   30.07R
YOUNGSTOWN     MOCLDY    67  51  56 SW13      30.05R
$$

OHZ042-051>053-060>062-070>072-077>081-250100-
  SOUTHWEST OHIO

CITY           SKY/WX    TMP DP  RH WIND       PRES   REMARKS
CINC-COVINGTON FAIR      70  53  54 S12       30.11R
CINC-LUNKEN    FAIR      70  54  56 SW14      30.11R
HAMILTON       FAIR      72  54  53 S8G17     30.10R
DAYTON         FAIR      68  52  56 S13       30.08R
WRIGHT-PAT AFB PTCLDY    69  52  56 S14       30.08R
DAYTON GENERAL FAIR      70  52  52 SW12      30.09R
WILMINGTON     FAIR      66  53  63 S9        30.11R
$$

OHZ036-037-039>041-045>050-054>059-063>069-073>076-082>088-250100-
  CENTRAL AND SOUTHEAST OHIO

CITY           SKY/WX    TMP DP  RH WIND       PRES   REMARKS
COLUMBUS       MOCLDY    70  53  54 S12       30.10R
OSU AIRPORT    FAIR      68  54  60 S8        30.09R
BOLTON FIELD   NOT AVBL
RICKENBACK AFB FAIR      67  54  61 SW12      30.10R
NEWARK         FAIR      69  52  54 SW9G21    30.10R
MARION         FAIR      68  51  54 SW15      30.07R
LANCASTER      FAIR      70  53  54 SW8       30.12R
ZANESVILLE     FAIR      71  51  49 SW8       30.12R
NEW PHILLY     FAIR      69  52  54 VRB5      30.09R
$$



USA.gov is the U.S. government's official web portal to all federal, state and local government web resources and services.